Location: Bo?a Wola
(50.4192°N, 19.7966°E)
Time: 02:39:27
(UTC+00:00)

GEOS 3 Rocket - Pass Details

Date: 20 September 2024
Orbit: 790 x 825 km, 115.0° (Epoch: 14 October)

Event Time Altitude Azimuth Distance (km) Brightness Sun altitude
Exits shadow 18:01:01 19° 111° (ESE) 1,864 4.8 -13.1°
Maximum altitude 18:04:41 55° 39° (NE) 961 3.9 -13.7°
Drops below altitude 10° 18:09:44 10° 323° (NW) 2,383 6.9 -14.4°
Sets 18:12:03 0° 319° (NW) 3,312 7.9 -14.8°
